Regional Weather Roundup
Issued by NWS

Home | Current Version | Previous Version | Text Only | Print | Product List | Glossary Off
Versions: 1 2 3 4 5 6 7 8 9 10 11 12 13 14 15 16 17 18 19 20 21 22 23 24 25 26 27 28 29 30 31 32 33 34 35 36 37 38 39 40 41 42 43 44 45 46 47 48 49 50

676
ASUS43 KLOT 301209
RWRIL

ILLINOIS REGIONAL WEATHER ROUNDUP
NATIONAL WEATHER SERVICE CHICAGO/ROMEOVILLE IL
700 AM CDT SAT JUL 30 2016

NOTE: "FAIR" INDICATES FEW OR NO CLOUDS BELOW 12,000 FEET WITH NO
SIGNIFICANT WEATHER AND/OR OBSTRUCTIONS TO VISIBILITY.

* THESE STATIONS ARE NOT UNDER NWS QUALITY CONTROL. THEY ALSO MAY NOT
  REPORT WEATHER SUCH AS PRECIPITATION OR FOG.

ILZ001-002-007-009-015-016-024-301300-
NORTHWEST ILLINOIS

CITY           SKY/WX    TMP DP  RH WIND       PRES   REMARKS
MOLINE         CLOUDY    71  65  81 CALM      29.97R
6HR MIN TEMP:  70; 6HR MAX TEMP:  71;

STERLING*      MOSUNNY   67  66  97 NE7       29.98R
SAVANNA*       CLOUDY    66  64  94 N3        29.99R
$$

ILZ003-004-008-010-011-017-018-301300-
NORTH CENTRAL ILLINOIS

CITY           SKY/WX    TMP DP  RH WIND       PRES   REMARKS
ROCKFORD       PTSUNNY   68  65  90 NE8       30.00R
6HR MIN TEMP:  67; 6HR MAX TEMP:  69;

FREEPORT*      CLOUDY    64  64  97 CALM      30.01R
ROCHELLE*      CLOUDY    66  65  97 NE6       29.99R FOG
DE KALB*       CLOUDY    66  65  97 NE7       29.99R
$$

ILZ005-006-012>014-019>023-301300-
NORTHEAST ILLINOIS

CITY           SKY/WX    TMP DP  RH WIND       PRES   REMARKS
CHICAGO-OHARE  CLOUDY    70  64  81 NE8       29.96R
6HR MIN TEMP:  70; 6HR MAX TEMP:  71;

CHICAGO-MIDWAY PTSUNNY   72  65  78 NE13      29.95R
6HR MIN TEMP:  71; 6HR MAX TEMP:  75; 6HR PCP: TRACE;

AURORA         MOSUNNY   69  66  90 NE7       29.97R
6HR MIN TEMP:  67; 6HR MAX TEMP:  69;

LANSING*       CLOUDY    69  66  92 NE5       29.96R
JOLIET*        CLOUDY    72  69  91 NE3       29.95S
WAUKEGAN       PTSUNNY   69  63  81 E8        29.98R
6HR MIN TEMP:  67; 6HR MAX TEMP:  72;

DUPAGE AIRPORT CLOUDY    70  65  84 NE7       29.97R
6HR MIN TEMP:  65; 6HR MAX TEMP:  70;

KANKAKEE*      FOG       67  67  97 NE3       29.96R VSB 1/4
WHEELING       CLOUDY    70  63  78 E7        29.98R
6HR MIN TEMP:  70; 6HR MAX TEMP:  72;

MORRIS*        CLOUDY    68  67  96 CALM      29.95R
ROMEOVILLE*    CLOUDY    70  66  86 NE7       29.96R
NORTHERLY ISL    N/A     70  66  87 NE8         N/A
$$

LMZ740>746-301300-
SOUTHERN LAKE MICHIGAN

STATION/POSITION SKY/WX   TEMP    WIND        PRES    VSBY  WAVE
                          AIR SEA DIR/SP/G                  HT/PER
                          (F)     (DEG/KT/KT) (MB)    (MI)  (FT/S)
SOUTHERN BUOY              68 73   80/ 14/ 17 1014.3R         4/ 5
WILMETTE HARBOR            70 71  110/ 12/ 16   N/A           5/ 6
HARRISON CRIB              69      70/ 19/ 20   N/A
BURNHAM HARBOR             70      70/ 14/ 16   N/A
CALUMET HARBOR             69      20/ 11/ 17 1013.6R
BURNS HARBOR               69      60/  4/  7 1014.6R
MICHIGAN CITY              68      30/  5/  5   N/A
MICHIGAN CITY 6N           68 74   70/ 14/ 19   N/A           3/ 5
ST. JOSEPH                 66 70   30/ 10/ 14 1014.9R         2
$$

ILZ025>027-034>036-040-047-049-050-058-095>099-301300-
WEST-CENTRAL ILLINOIS

CITY           SKY/WX    TMP DP  RH WIND       PRES   REMARKS
QUINCY         FOG       66  66 100 NW5       29.99R VSB 1/4
GALESBURG*     CLOUDY    68  67  98 N5        29.98R FOG
MACOMB*        PTSUNNY   67  67 100 CALM      30.00R FOG
JACKSONVILLE*  FOG       65  64  97 W7        29.98R VSB<1/4
PITTSFIELD*    FOG       65  65 100 W3        30.00R VSB 1/2
$$

ILZ028>032-037-038-041>044-048-051>054-059>061-301300-
CENTRAL ILLINOIS

CITY           SKY/WX    TMP DP  RH WIND       PRES   REMARKS
BLOOMINGTON    FOG       66  66 100 NW6       29.97R VSB 3/4
DECATUR        SUNNY     70  65  84 W3        29.96R
PEORIA         CLOUDY    71  69  93 NW3       29.96R FOG
6HR MIN TEMP:  69; 6HR MAX TEMP:  71; 6HR PCP: TRACE;

LACON*         DRIZZLE   69  67  96 CALM      29.95R
LINCOLN*       FOG       68  68 100 CALM      29.96R VSB 1/4
SPRINGFIELD    MOSUNNY   66  64  93 SW5       29.97R
6HR MIN TEMP:  64; 6HR MAX TEMP:  68;

TAYLORVILLE    SUNNY     65  65  99 MISG      29.97S
6HR MIN TEMP:  62; 6HR MAX TEMP:  66;

$$

ILZ033-039-045-046-055>057-062-063-301300-
EAST-CENTRAL ILLINOIS

CITY           SKY/WX    TMP DP  RH WIND       PRES   REMARKS
CHAMPAIGN      SUNNY     65  64  97 W5        29.96R
MATTOON        SUNNY     69  64  84 W6        29.96R
PARIS*         SUNNY     67  67  98 CALM      29.97R
$$

ILZ079-100>102-301300-
SOUTHWEST ILLINOIS

CITY           SKY/WX    TMP DP  RH WIND       PRES   REMARKS
ALTON          MOSUNNY   68  66  94 VRB5      29.98S
BELLEVILLE     SUNNY     72  72 100 CALM      29.96S
CAHOKIA*       CLEAR     71  69  93 CALM      29.97S FOG
SPARTA*        MOSUNNY   69  69  99 CALM      29.99R FOG
$$

ILZ064>066-069>071-074>076-080>082-084>086-088>090-092>094-301300-
SOUTH-CENTRAL ILLINOIS

CITY           SKY/WX    TMP DP  RH WIND       PRES   REMARKS
CARBONDALE     CLOUDY    70  69  97 W3        29.98R FOG
6HR MIN TEMP:  69; 6HR MAX TEMP:  72; 6HR PCP:  0.48;

CAIRO*         PTSUNNY   70  70 100 SW5       29.97R
EFFINGHAM*     SUNNY     69  69 100 W3        29.99R
MARION         CLOUDY    72  70  94 NW6       29.99R FOG
MT. VERNON     CLOUDY    72  66  83 CALM      29.98R
CENTRALIA*     CLOUDY    71  71 100 W5        29.98R FOG
SALEM*         SUNNY     72  70  95 NW3       29.98R FOG
METROPOLIS*    MOSUNNY   71  70  96 CALM      29.98R
$$

ILZ067-068-072-073-078-083-087-091-301300-
SOUTHEAST ILLINOIS

CITY           SKY/WX    TMP DP  RH WIND       PRES   REMARKS
LAWRENCEVILLE  MOSUNNY   72  70  93 CALM        N/A
FLORA*         PTSUNNY   72  70  94 NW5       29.97R
FAIRFIELD*     SUNNY     71  71  99 CALM      29.96R
HARRISBURG*    SUNNY     71  71  99 CALM      29.97R
ROBINSON*      MOSUNNY   68  68  99 CALM      29.97R
CARMI*         MOSUNNY   71  71 100 CALM      29.96R FOG
$$

ABBREVIATIONS USED IN REMARKS
   TC - TEMPERATURE IN CELSIUS
  WCI - WIND CHILL INDEX
   HX - HEAT INDEX
  VSB - VISIBILITY
$$





USA.gov is the U.S. government's official web portal to all federal, state and local government web resources and services.